Weather in Rodnikovskaya

Russia / Krasnodar Krai     44°45′57″N   40°39′33″E
temp.,
°C
wind,
m/s
gust,
m/s
humid.,
%
clouds,
%
prec.,
mm/h
press.,
hPa
HPBL,
m
27 october, wed
wed2700:00+3e49820 0.0 1030222
03:00+2ese48860 0.0 1029187
06:00+1ese48870 0.0 1028165
09:00+5ese45640 0.0 1027269
12:00+12e22400 0.0 1025604
15:00+14ene12370 0.0 1024804
18:00+8e22580 0.0 102430
21:00+6ssw22620 0.0 102313
28 october, thu
thu2800:00+5sw22670 0.0 102415
03:00+4sw22690 0.0 102411
06:00+4sw11710 0.0 102410
09:00+7w23620 0.0 1025228
12:00+12wnw34580 0.0 1024755
15:00+12wnw44587 0.0 10231016
18:00+9nw117633 0.0 102412
21:00+9wsw1173100 0.0 102414
29 october, fri
fri2900:00+9wsw127370 0.0 102441
03:00+6w117385 0.0 102510
06:00+5ssw1168100 0.0 102510
09:00+8s11601 0.0 1026205
12:00+12nne225053 0.0 1025808
15:00+13ne333883 0.0 10251093
18:00+8ene364998 0.0 1026112
21:00+6e38585 0.0 1027140
30 october, sat
sat3000:00+5e39582 0.0 1027176
03:00+4e49605 0.0 1027170
06:00+4e410655 0.0 1028196
09:00+8e6125327 0.0 1029452
12:00+13e794385 0.0 10271036
15:00+13e7940100 0.0 10271260
18:00+9e512450 0.0 1028361
21:00+7e512540 0.0 1027338
31 october, sun
sun3100:00+6e411600 0.0 1027274
03:00+6e49630 0.0 1026203
06:00+6e5106995 0.0 1025219
09:00+9e7126151 0.0 1024374
12:00+14e8105299 0.0 1022763
15:00+14e8106296 0.0 1022746
18:00+10e71377100 0.0 1022506
21:00+10e61176100 0.0 1021423